Location: Ar Ranvel
(48.3000°N, 4.8833°W)
Time: 21:11:31
(UTC+00:00)

N. Korean satellite - Pass Details

Date: 28 September 2021
Orbit: 450 x 495 km, 97.3° (Epoch: 25 October)

Event Time Altitude Azimuth Distance (km) Brightness Sun altitude
Rises 05:14:08 0° 19° (NNE) 2,537 10.6 -10.9°
Reaches altitude 10° 05:16:18 10° 28° (NNE) 1,661 9.8 -10.5°
Maximum altitude 05:19:39 38° 98° (E) 758 8.2 -10.0°
Drops below altitude 10° 05:23:02 10° 168° (SSE) 1,670 9.4 -9.4°
Sets 05:25:12 0° 176° (S) 2,552 10.2 -9.0°
